[[{"header":{"parameterUnit":"m.s-1","parameterCategory":1,"la1":30.2991,"la2":30.254,"lo1":-89.0895,"lo2":-89.0444,"dy":0.0017,"dx":0.0017,"nx":28,"ny":28,"refTime":"2024-10-06T03:00:00:Z","depth":0,"parameterNumber":2,"parameterNumberName":"U-component_of_WINDS"},"data":[0,0,0,0,0,0,0,0,0,0,0,0,0,0,0,0,0,0,0,0,0,0,0,0,0,0,0,0,0,0,0,0,0,0,0,0,0,0,0,0,0,0,0,0,0,0,0,0,0,0,0,0,0,0,0,0,0,0,-3.3609,-3.3609,0,-3.3622,-3.3622,-3.3622,-3.3511,-3.3508,-3.3505,-3.3502,-3.3518,-3.3521,-3.3524,0,0,0,0,0,0,0,0,0,0,0,0,0,-3.3488,-3.3491,-3.3609,-3.3609,-3.3609,-3.3622,-3.3622,-3.3622,-3.3512,-3.3508,-3.3504,-3.3501,-3.3516,-3.352,-3.3524,0,0,0,0,0,0,0,0,0,0,0,0,0,-3.3525,-3.3492,-3.3609,-3.3555,-3.3551,-3.3622,-3.3622,-3.3622,-3.3513,-3.3508,-3.3503,-3.3499,-3.3515,-3.352,-3.3525,-3.3648,0,0,-3.354,-3.3542,0,0,0,0,0,0,0,0,-3.3523,-3.353,-3.3563,-3.3559,-3.3554,-3.356,-3.3585,-3.3631,-3.3514,-3.3527,-3.3502,-3.3497,-3.3536,-3.3539,-3.3551,-3.3649,-3.365,-3.354,-3.3543,-3.3545,-3.3547,0,0,0,0,0,0,0,-3.3521,-3.3528,-3.3614,-3.3564,-3.3558,-3.3531,-3.3531,-3.3593,-3.3557,-3.3526,-3.3518,-3.3521,-3.3532,-3.3547,-3.3551,-3.365,-3.354,-3.3545,-3.3548,-3.355,-3.3849,-3.3854,0,0,0,0,0,0,-3.3525,-3.3527,-3.3613,-3.3614,-3.3527,-3.3537,-3.3537,-3.3563,-3.3556,-3.3551,-3.3524,-3.3515,-3.3541,-3.3545,-3.3551,-3.3695,-3.3545,-3.355,-3.3553,-3.3844,-3.385,-3.3856,0,0,0,0,0,0,-3.3523,-3.3534,-3.3613,-3.3568,-3.3576,-3.3544,-3.3574,-3.3566,-3.358,-3.3555,-3.3549,-3.3546,-3.3537,-3.3544,-3.3625,-3.3694,-3.3552,-3.3557,-3.3838,-3.3846,-3.3853,-3.3985,0,0,0,0,0,0,-3.352,-3.3534,-3.358,-3.357,-3.3579,-3.3687,-3.3578,-3.3569,-3.3589,-3.3577,-3.3574,-3.3569,-3.3534,-3.3618,-3.363,-3.3699,-3.3561,-3.3832,-3.3842,-3.3851,-3.3975,-3.3996,-3.4015,0,0,0,0,0,-3.3516,-3.3617,-3.3583,-3.3594,-3.3637,-3.3691,-3.3696,-3.3653,-3.3595,-3.3641,-3.3625,-3.3569,-3.3684,-3.3627,-3.3639,-3.3711,-3.3828,-3.3839,-3.385,-3.3966,-3.3992,-3.4014,0,0,0,0,0,0,-3.3637,-3.3615,-3.3577,-3.3678,-3.3687,-3.3672,-3.373,-3.3683,-3.3709,-3.3697,-3.3643,-3.3644,-3.3734,-3.373,-3.3666,-3.383,-3.3746,-3.376,-3.3829,-3.3854,-3.3874,-3.3874,-3.3565,0,0,0,0,0,-3.3676,-3.3721,-3.3699,-3.379,-3.3797,-3.3763,-3.3785,-3.3751,-3.3758,-3.3762,-3.3752,-3.3762,-3.38,-3.3827,-3.3861,-3.3973,-3.3971,-3.4028,-3.4048,-3.4065,-3.4078,-3.4138,-3.4163,-3.3893,-3.3893,-3.3892,0,0,-3.3756,-3.3749,-3.3781,-3.3815,-3.3818,-3.3867,-3.3767,-3.3823,-3.3858,-3.377,-3.3846,-3.3839,-3.3847,-3.3944,-3.3986,-3.3944,-3.4152,-3.4079,-3.4093,-3.4097,-3.4152,-3.4178,-3.4201,-3.39,-3.3899,-3.3898,0,0,-3.3926,-3.3926,-3.4002,-3.4007,-3.4012,-3.3988,-3.4007,-3.3999,-3.3991,-3.4065,-3.4001,-3.4042,-3.4109,-3.4117,-3.413,-3.4303,-3.4253,-3.4316,-3.4422,-3.4481,-3.4502,-3.4521,-3.4584,-3.4607,-3.4329,-3.4329,-3.433,0,-3.4026,-3.4096,-3.4047,-3.4107,-3.4124,-3.4045,-3.4122,-3.4129,-3.4146,-3.416,-3.4111,-3.4194,-3.4193,-3.4292,-3.4334,-3.4346,-3.4366,-3.4317,-3.4503,-3.4521,-3.4538,-3.4597,-3.4621,-3.4337,-3.4336,-3.4335,-3.4335,0,-3.4218,-3.4268,-3.4329,-3.4346,-3.437,-3.4438,-3.44,-3.4429,-3.4393,-3.4375,-3.4452,-3.4448,-3.448,-3.45,-3.4466,-3.4594,-3.4568,-3.4512,-3.4427,-3.4572,-3.4627,-3.465,-3.4348,-3.4345,-3.4343,-3.4341,0,0,-3.4468,-3.4456,-3.4479,-3.4486,-3.4486,-3.4524,-3.4589,-3.4619,-3.4646,-3.466,-3.4713,-3.4771,-3.472,-3.4735,-3.47,-3.4751,-3.489,-3.4689,-3.4689,-3.4728,-3.5032,-3.5075,-3.5102,-3.4855,-3.486,-3.4863,-3.5032,0,-3.4635,-3.4745,-3.4702,-3.4815,-3.4861,-3.4787,-3.4843,-3.4849,-3.4834,-3.487,-3.4852,-3.4895,-3.4823,-3.4832,-3.4879,-3.4863,-3.4951,-3.485,-3.4906,-3.4909,-3.4908,-3.5131,-3.5177,-3.5336,-3.5053,-3.5056,-3.5059,0,-3.4846,-3.4868,-3.4986,-3.4977,-3.4995,-3.5047,-3.5071,-3.5107,-3.5112,-3.5097,-3.5113,-3.5067,-3.513,-3.5044,-3.5131,-3.5064,-3.5083,-3.5079,-3.5084,-3.5089,-3.4994,-3.5143,-3.5386,-3.5411,-3.5092,-3.5089,-3.5087,0,-3.5018,-3.5077,-3.5155,-3.5163,-3.5155,-3.5193,-3.5191,-3.5192,-3.5213,-3.5234,-3.5247,-3.5276,-3.5292,-3.5316,-3.5279,-3.5219,-3.5371,-3.5282,-3.5362,-3.5363,-3.5399,-3.5397,-3.565,-3.5409,-3.5409,-3.5408,-3.5408,0,-3.5211,-3.5286,-3.5232,-3.5281,-3.5363,-3.5312,-3.5395,-3.5385,-3.5386,-3.5432,-3.5368,-3.5413,-3.536,-3.54,-3.5371,-3.5448,-3.5455,-3.5446,-3.5438,-3.5452,-3.5454,-3.5466,-3.5455,-3.5415,-3.5413,-3.5412,-3.5411,0,-3.5418,-3.5384,-3.5465,-3.545,-3.5448,-3.5509,-3.5497,-3.5541,-3.552,-3.5578,-3.5589,-3.5557,-3.56,-3.5565,-3.5606,-3.5587,-3.5689,-3.5665,-3.5688,-3.5682,-3.5764,-3.5758,-3.6035,-3.6069,-3.5805,-3.5808,-3.581,0,-3.5544,-3.5601,-3.5591,-3.5617,-3.5619,-3.5661,-3.5682,-3.5634,-3.5658,-3.5668,-3.5712,-3.5749,-3.5776,-3.5848,-3.5829,-3.5861,-3.5837,-3.5932,-3.5842,-3.5855,-3.5841,-3.5839,-3.5844,-3.5951,-3.5955,-3.5957,-3.5959,0,-3.5773,-3.5753,-3.5785,-3.5812,-3.5838,-3.5857,-3.5871,-3.5896,-3.5846,-3.5877,-3.592,-3.5941,-3.5983,-3.6021,-3.6046,-3.6045,-3.5995,-3.5987,-3.6008,-3.6025,-3.6037,-3.6033,-3.574,-3.5982,-3.598,-3.5978,-3.5977,-3.5976,-3.5944,-3.5991,-3.5991,-3.6029,-3.6034,-3.6049,-3.609,-3.6073,-3.6108,-3.6138,-3.6107,-3.6159,-3.6163,-3.6191,-3.6196,-3.6236,-3.6197,-3.6226,-3.6234,-3.6242,-3.6255,-3.6028,-3.624,-3.6239,-3.6239,-3.6238,-3.6238,0,-3.617,-3.6167,-3.6202,-3.6223,-3.6253,-3.6201,-3.6213,-3.6242,-3.6289,-3.6296,-3.6324,-3.6373,-3.6409,-3.6392,-3.6424,-3.646,-3.6438,-3.647,-3.6468,-3.6469,-3.6287,-3.6267,-3.6487,-3.6487,-3.6487,-3.6487,-3.6487,-3.6487,-3.6292,-3.6368,-3.6348,-3.6427,-3.6422,-3.6472,-3.6484,-3.6497,-3.6502,-3.656,-3.6589,-3.6577,-3.6575,-3.6606,-3.6637,-3.6631,-3.6647,-3.6688,-3.6674,-3.6506,-3.6481,-3.6458,-3.6439,-3.6691,-3.6692,-3.6852,-3.6853,-3.6855]},{"header":{"parameterUnit":"m.s-1","parameterCategory":1,"la1":30.2991,"la2":30.254,"lo1":-89.0895,"lo2":-89.0444,"dy":0.0017,"dx":0.0017,"nx":28,"ny":28,"refTime":"2024-10-06T03:00:00:Z","depth":0,"parameterNumber":3,"parameterNumberName":"V-component_of_WINDS"},"data":[0,0,0,0,0,0,0,0,0,0,0,0,0,0,0,0,0,0,0,0,0,0,0,0,0,0,0,0,0,0,0,0,0,0,0,0,0,0,0,0,0,0,0,0,0,0,0,0,0,0,0,0,0,0,0,0,0,0,-1.8436,-1.8436,0,-1.8486,-1.8487,-1.8488,-1.8463,-1.8462,-1.8461,-1.846,-1.8508,-1.851,-1.8513,0,0,0,0,0,0,0,0,0,0,0,0,0,-1.8315,-1.8318,-1.8436,-1.8437,-1.8437,-1.8486,-1.8487,-1.8488,-1.8464,-1.8462,-1.846,-1.8459,-1.8507,-1.851,-1.8513,0,0,0,0,0,0,0,0,0,0,0,0,0,-1.8367,-1.8318,-1.8436,-1.8431,-1.8431,-1.8486,-1.8487,-1.8488,-1.8464,-1.8462,-1.846,-1.8458,-1.8506,-1.851,-1.8513,-1.8575,0,0,-1.8525,-1.8526,0,0,0,0,0,0,0,0,-1.8364,-1.8371,-1.8431,-1.8432,-1.8432,-1.8467,-1.8462,-1.8517,-1.8464,-1.8451,-1.846,-1.8457,-1.8495,-1.85,-1.8513,-1.8577,-1.8579,-1.8525,-1.8527,-1.8529,-1.853,0,0,0,0,0,0,0,-1.836,-1.8369,-1.8456,-1.8432,-1.8432,-1.8425,-1.8431,-1.8472,-1.8483,-1.8452,-1.8451,-1.8457,-1.8495,-1.851,-1.8514,-1.858,-1.8525,-1.8528,-1.853,-1.8532,-1.8697,-1.8699,0,0,0,0,0,0,-1.8358,-1.8366,-1.8454,-1.8457,-1.8393,-1.8429,-1.8435,-1.8457,-1.8483,-1.8485,-1.8459,-1.8456,-1.8505,-1.851,-1.8516,-1.859,-1.8529,-1.8532,-1.8534,-1.8695,-1.8697,-1.8699,0,0,0,0,0,0,-1.8355,-1.8366,-1.8452,-1.8411,-1.8422,-1.8433,-1.8459,-1.8459,-1.8474,-1.8488,-1.8489,-1.8472,-1.8503,-1.8511,-1.8561,-1.8592,-1.8534,-1.8537,-1.8692,-1.8695,-1.8698,-1.8739,0,0,0,0,0,0,-1.8352,-1.8365,-1.8389,-1.8412,-1.8424,-1.8497,-1.846,-1.8462,-1.8481,-1.8478,-1.8501,-1.8503,-1.8502,-1.8555,-1.8564,-1.8596,-1.854,-1.8689,-1.8693,-1.8697,-1.8735,-1.8743,-1.8751,0,0,0,0,0,-1.8347,-1.8398,-1.839,-1.8401,-1.8455,-1.8499,-1.8506,-1.8505,-1.8484,-1.8508,-1.8517,-1.8502,-1.8587,-1.8561,-1.8571,-1.8604,-1.8687,-1.8692,-1.8697,-1.8732,-1.8742,-1.875,0,0,0,0,0,0,-1.8376,-1.84,-1.8393,-1.8452,-1.8474,-1.8495,-1.8525,-1.8516,-1.8543,-1.8539,-1.8536,-1.8541,-1.8593,-1.8603,-1.8574,-1.8665,-1.8634,-1.8641,-1.8657,-1.8666,-1.8674,-1.8671,-1.8543,0,0,0,0,0,-1.839,-1.8425,-1.8443,-1.8494,-1.8505,-1.8513,-1.8532,-1.853,-1.8552,-1.8561,-1.8573,-1.8594,-1.8626,-1.8646,-1.8676,-1.8736,-1.8741,-1.8764,-1.8771,-1.8778,-1.8784,-1.8818,-1.8828,-1.8715,-1.8715,-1.8715,0,0,-1.8417,-1.8435,-1.8457,-1.85,-1.8517,-1.8552,-1.8521,-1.856,-1.8586,-1.8566,-1.8615,-1.8625,-1.8648,-1.8704,-1.8729,-1.8713,-1.8816,-1.8784,-1.8789,-1.8792,-1.8824,-1.8834,-1.8844,-1.8719,-1.8718,-1.8717,0,0,-1.8486,-1.8503,-1.8548,-1.8565,-1.8591,-1.8597,-1.8607,-1.863,-1.8636,-1.8685,-1.8672,-1.8702,-1.8756,-1.8773,-1.8789,-1.8865,-1.8853,-1.8875,-1.8915,-1.8948,-1.8957,-1.8965,-1.8993,-1.9003,-1.8881,-1.8881,-1.8881,0,-1.8517,-1.8572,-1.8571,-1.8612,-1.8631,-1.8616,-1.8661,-1.8678,-1.8711,-1.8725,-1.8707,-1.8776,-1.879,-1.885,-1.8869,-1.8882,-1.8894,-1.8873,-1.8956,-1.8964,-1.8971,-1.8998,-1.9008,-1.8884,-1.8883,-1.8883,-1.8883,0,-1.8609,-1.8646,-1.8679,-1.8714,-1.8737,-1.8779,-1.8784,-1.8807,-1.8803,-1.881,-1.886,-1.8877,-1.891,-1.8924,-1.8919,-1.8984,-1.8974,-1.8956,-1.8925,-1.8984,-1.9009,-1.902,-1.8887,-1.8886,-1.8886,-1.8885,0,0,-1.8697,-1.8733,-1.8745,-1.8761,-1.8789,-1.8817,-1.8858,-1.8892,-1.8912,-1.8936,-1.8971,-1.9017,-1.9002,-1.9019,-1.9017,-1.9045,-1.9106,-1.9025,-1.9025,-1.904,-1.9178,-1.9192,-1.9204,-1.9098,-1.91,-1.9101,-1.9177,0,-1.8769,-1.8844,-1.8845,-1.8912,-1.8947,-1.8934,-1.897,-1.8991,-1.8998,-1.9028,-1.9035,-1.9069,-1.9045,-1.9056,-1.9084,-1.9093,-1.9134,-1.9087,-1.913,-1.9131,-1.9126,-1.9217,-1.9232,-1.9302,-1.9187,-1.9188,-1.9189,0,-1.8863,-1.8892,-1.8964,-1.8988,-1.9002,-1.9035,-1.9066,-1.9095,-1.9118,-1.9121,-1.9142,-1.9136,-1.9177,-1.9144,-1.9201,-1.917,-1.9187,-1.9194,-1.9197,-1.9201,-1.9165,-1.9225,-1.9324,-1.9335,-1.9205,-1.9203,-1.9202,0,-1.8922,-1.8978,-1.9029,-1.9043,-1.9072,-1.9095,-1.9108,-1.9129,-1.915,-1.9176,-1.919,-1.9221,-1.9238,-1.9261,-1.9263,-1.9239,-1.9321,-1.9288,-1.9325,-1.9325,-1.9343,-1.9342,-1.9448,-1.9353,-1.9353,-1.9353,-1.9352,0,-1.9003,-1.9047,-1.9056,-1.9087,-1.9137,-1.9137,-1.9186,-1.9196,-1.9215,-1.9248,-1.9237,-1.9268,-1.9268,-1.9298,-1.93,-1.9347,-1.9354,-1.9358,-1.9358,-1.936,-1.936,-1.9372,-1.9367,-1.9355,-1.9355,-1.9354,-1.9354,0,-1.9077,-1.9085,-1.9139,-1.9162,-1.9169,-1.9205,-1.9224,-1.9254,-1.926,-1.9302,-1.9311,-1.9321,-1.9357,-1.9361,-1.9402,-1.9403,-1.9461,-1.9455,-1.9454,-1.9453,-1.949,-1.9487,-1.9608,-1.9624,-1.9518,-1.9519,-1.9519,0,-1.9129,-1.9163,-1.9191,-1.9212,-1.9227,-1.9262,-1.9283,-1.9284,-1.9307,-1.9336,-1.9362,-1.9397,-1.9425,-1.9483,-1.9493,-1.9525,-1.952,-1.9561,-1.9525,-1.9526,-1.9522,-1.9521,-1.9524,-1.9568,-1.9569,-1.957,-1.9571,0,-1.922,-1.9222,-1.9254,-1.9288,-1.9314,-1.934,-1.9365,-1.9383,-1.9387,-1.9413,-1.945,-1.9472,-1.9515,-1.955,-1.9581,-1.9593,-1.9583,-1.9582,-1.9592,-1.9595,-1.9593,-1.9595,-1.9473,-1.9579,-1.9578,-1.9578,-1.9577,-1.9577,-1.9285,-1.9315,-1.934,-1.9376,-1.9395,-1.9418,-1.9448,-1.9458,-1.949,-1.9526,-1.9524,-1.9566,-1.9588,-1.9629,-1.9643,-1.9675,-1.9662,-1.9676,-1.968,-1.9684,-1.9689,-1.9587,-1.9681,-1.968,-1.968,-1.968,-1.968,0,-1.9376,-1.9391,-1.9425,-1.946,-1.9489,-1.9478,-1.9504,-1.9529,-1.9566,-1.9588,-1.9616,-1.9659,-1.9693,-1.9707,-1.974,-1.9763,-1.9759,-1.9772,-1.977,-1.9773,-1.9698,-1.9686,-1.9774,-1.9774,-1.9774,-1.9774,-1.9774,-1.9774,-1.9427,-1.9478,-1.9484,-1.9544,-1.9558,-1.96,-1.9617,-1.9638,-1.9656,-1.9705,-1.9734,-1.9743,-1.9761,-1.9796,-1.9827,-1.9829,-1.9842,-1.9857,-1.9858,-1.9788,-1.9779,-1.9769,-1.9759,-1.986,-1.986,-1.9931,-1.9932,-1.9932]}]]